TIANLIAN 1-04

Last updated on Thu Nov 21 2024 00:02:43 GMT+0000 (Coordinated Universal Time)

1 41869U 16072A 24325.37887031 .00000032 00000+0 00000+0 0 9990 2 41869 0.2195 92.7619 0034798 74.4934 205.8047 1.00270508 29553
UTC large
Height (km)
Speed (km/s)
/
Latitude / Longitude
Inclination (degrees)
Orbital Period (minutes)
Azimuth
Elevation
Range (km)
Doppler Factor

Next 0 passes for location: London (51.5072 / 0.1276)

Sorry there are no passes over London.